Weather History for West Palm Beach, FL

Change the Weather History Date:

Sunday, April 28, 2013

  Actual Average Record
Temperature  
Mean Temperature 78 °F 76 °F  
Max Temperature 82 °F 83 °F 92 °F (1965)
Min Temperature 73 °F 68 °F 51 °F (1913)
Degree Days  
Heating Degree Days 0 0  
Month to date heating degree days 0 0  
Since 1 July heating degree days 164 229  
Cooling Degree Days 13 11  
Month to date cooling degree days 332 244  
Year to date cooling degree days 803 672  
Growing Degree Days 28 (Base 50)    
Moisture  
Dew Point 61 °F    
Average Humidity 57    
Maximum Humidity 68    
Minimum Humidity 45    
Precipitation  
Precipitation 0.00 in 0.10 in 1.48 in (1930)
Month to date precipitation 3.92 3.48  
Year to date precipitation 8.08 14.02  
Snow  
Snow 0.00 in - - ()
Month to date snowfall 0.0  
Since 1 July snowfall 0.0  
Snow Depth 0.00 in    
Sea Level Pressure  
Sea Level Pressure 30.07 in    
Wind  
Wind Speed 15 mph (ESE)    
Max Wind Speed 20 mph    
Max Gust Speed 24 mph    
Visibility 10 miles    
Events      
T = Trace of Precipitation, MM = Missing Value Source: NWS Daily Summary

Daily Weather History Graph

Daily Weather History Graph

Search for Another Location

Airport:

Trip Planner

Search our weather history database for the weather conditions in past years. The results will help you decide how hot, cold, wet, or windy it might be!

Date:

Astronomy

Apr. 28, 2013 Rise Set
Actual Time 6:44 AM EDT 7:51 PM EDT
Civil Twilight 6:20 AM EDT 8:15 PM EDT
Nautical Twilight 5:51 AM EDT 8:44 PM EDT
Astronomical Twilight 5:21 AM EDT 9:14 PM EDT
Moon 11:10 PM EDT (4/28) 9:09 AM EDT (4/28)
Length of Visible Light 13h 55m
Length of Day
13h 06m
Waning Gibbous, 89% of the Moon is Illuminated
Apr 28
Waning Gibbous
May 2
Last Quarter
May 9
New
May 18
First Quarter
May 25
Full

Hourly Weather History & Observations

Time (EDT) Temp. Heat Index Dew Point Humidity Pressure Visibility Wind Dir Wind Speed Gust Speed Precip Events Conditions
12:53 AM 75.0 °F - 61.0 °F 62% 30.12 in 10.0 mi East 17.3 mph - N/A   Scattered Clouds
1:53 AM 75.0 °F - 61.0 °F 62% 30.10 in 10.0 mi East 15.0 mph - N/A   Scattered Clouds
2:53 AM 73.9 °F - 61.0 °F 64% 30.09 in 10.0 mi East 12.7 mph - N/A   Scattered Clouds
3:53 AM 73.9 °F - 60.1 °F 62% 30.07 in 10.0 mi East 12.7 mph - N/A   Scattered Clouds
4:53 AM 73.9 °F - 62.1 °F 66% 30.06 in 10.0 mi East 12.7 mph - N/A   Scattered Clouds
5:53 AM 73.9 °F - 62.1 °F 66% 30.06 in 10.0 mi East 11.5 mph - N/A   Mostly Cloudy
6:53 AM 73.0 °F - 61.0 °F 66% 30.07 in 10.0 mi ESE 13.8 mph - N/A   Mostly Cloudy
7:53 AM 75.0 °F - 61.0 °F 62% 30.08 in 10.0 mi ESE 15.0 mph - N/A   Scattered Clouds
8:53 AM 75.9 °F - 62.1 °F 62% 30.09 in 10.0 mi ESE 18.4 mph - N/A   Scattered Clouds
9:53 AM 78.1 °F - 61.0 °F 56% 30.11 in 10.0 mi East 17.3 mph - N/A   Scattered Clouds
10:53 AM 79.0 °F - 57.0 °F 47% 30.11 in 10.0 mi East 17.3 mph 23.0 mph N/A   Scattered Clouds
11:53 AM 80.1 °F 80.6 °F 57.9 °F 47% 30.11 in 10.0 mi East 17.3 mph 23.0 mph N/A   Scattered Clouds
12:53 PM 81.0 °F 81.0 °F 57.0 °F 44% 30.11 in 10.0 mi East 13.8 mph - N/A   Scattered Clouds
1:53 PM 81.0 °F 81.3 °F 59.0 °F 47% 30.10 in 10.0 mi East 13.8 mph 20.7 mph N/A   Scattered Clouds
2:53 PM 80.1 °F 80.9 °F 60.1 °F 50% 30.07 in 10.0 mi ESE 13.8 mph - N/A   Scattered Clouds
3:53 PM 80.1 °F 81.1 °F 61.0 °F 52% 30.05 in 10.0 mi ESE 16.1 mph 23.0 mph N/A   Scattered Clouds
4:53 PM 80.1 °F 81.2 °F 62.1 °F 54% 30.02 in 10.0 mi ESE 13.8 mph - N/A   Scattered Clouds
5:53 PM 79.0 °F - 61.0 °F 54% 30.01 in 10.0 mi ESE 15.0 mph - N/A   Scattered Clouds
6:53 PM 78.1 °F - 61.0 °F 56% 30.01 in 10.0 mi ESE 16.1 mph 20.7 mph N/A   Scattered Clouds
7:53 PM 77.0 °F - 61.0 °F 58% 30.01 in 10.0 mi SE 12.7 mph - N/A   Mostly Cloudy
8:53 PM 77.0 °F - 62.1 °F 60% 30.01 in 10.0 mi ESE 13.8 mph - N/A   Scattered Clouds
9:53 PM 75.9 °F - 61.0 °F 60% 30.02 in 10.0 mi ESE 15.0 mph - N/A   Partly Cloudy
10:53 PM 75.9 °F - 62.1 °F 62% 30.03 in 10.0 mi ESE 12.7 mph - N/A   Partly Cloudy
11:53 PM 75.9 °F - 62.1 °F 62% 30.03 in 10.0 mi ESE 13.8 mph - N/A   Partly Cloudy